Location: Isle of Man Observatory
(54.1776°N, 4.6264°W)
Time: 19:02:13
(UTC+01:00)

OTV 5 (USA 277) - Visible Passes

Search period start: 23 January 2019 00:00
Search period end: 02 February 2019 00:00
Orbit: 339 x 349 km, 54.5° (Epoch: 15 January)

Date Brightness Start Highest point End Pass type
(mag) Time Alt. Az. Time Alt. Az. Time Alt. Az.
26 Jan ? 07:54:14 10° S 07:55:54 14° SE 07:57:34 10° ESE visible
27 Jan ? 08:16:41 10° SSW 08:19:15 28° SSE 08:21:51 10° E visible
28 Jan ? 07:06:45 10° S 07:08:21 14° SE 07:09:58 10° ESE visible
29 Jan ? 07:29:09 10° SSW 07:31:42 27° SSE 07:34:16 10° E visible
30 Jan ? 06:20:54 13° SE 06:20:54 13° SE 06:22:19 10° ESE visible
30 Jan ? 07:52:21 10° SW 07:55:12 52° SSE 07:58:04 10° E visible
31 Jan ? 06:44:01 27° SSE 06:44:08 27° SSE 06:46:41 10° E visible
31 Jan ? 08:15:53 10° WSW 08:18:48 83° S 08:21:45 10° E visible
01 Feb ? 07:07:01 41° SSW 07:07:38 50° SSE 07:10:30 10° E visible
